Location: *
(17.3280°S, 114.7300°W)
Time: 06:47:00
(UTC+00:00)

SAR-Lupe-4 - Pass Details

Date: 05 August 2020
Orbit: 481 x 485 km, 98.2° (Epoch: 16 September)

Event Time Altitude Azimuth Distance (km) Brightness Sun altitude
Rises 12:37:11 0° 169° (SSE) 2,564 7.2 -20.6°
Reaches altitude 10° 12:39:15 10° 168° (SSE) 1,676 6.3 -20.1°
Maximum altitude 12:42:52 89° 259° (W) 489 3.4 -19.3°
Drops below altitude 10° 12:46:25 10° 348° (NNW) 1,654 6.3 -18.5°
Sets 12:48:27 0° 348° (NNW) 2,526 7.2 -18.0°
